Regional Weather Roundup
Issued by NWS Charleston, SC

Current Version | Previous Version | Graphics & Text | Print | Product List | Glossary On
Versions: 1 2 3 4 5 6 7 8 9 10 11 12 13 14 15 16 17 18 19 20 21 22 23 24 25 26 27 28 29 30 31 32 33 34 35 36 37 38 39 40 41 42 43 44 45 46 47 48 49 50
000 ASUS42 KCHS 270028 RWRCHS REGIONAL WEATHER ROUNDUP NATIONAL WEATHER SERVICE CHARLESTON SC 800 PM EDT THU MAY 26 2016 NOTE: "FAIR" INDICATES FEW OR NO CLOUDS BELOW 12,000 FEET WITH NO SIGNIFICANT WEATHER AND/OR OBSTRUCTIONS TO VISIBILITY. NOT ALL STATIONS ARE QUALITY CONTROLLED. USE DATA WITH CAUTION... ESPECIALLY DEWPOINT OBSERVATIONS. SCZ027-030-031-034>040-042>050-270100- ...SOUTHEAST SOUTH CAROLINA... CITY SKY/WX TMP DP RH WIND PRES REMARKS N CHARLESTON PTCLDY 77 60 55 SE10 30.11S 6HR MIN TEMP: 77; 6HR MAX TEMP: 87; WATERFRONT PRK N/A 77 66 68 S7 30.09F MOUNT PLEASANT NOT AVBL JOHNS ISLAND NOT AVBL PINOPOLIS N/A 86 55 35 S5 30.03S MONCKS CORNER NOT AVBL SUMMERVILLE NOT AVBL BEAUFORT MCAS CLEAR 77 64 64 SE3 30.11S 6HR MIN TEMP: 77; 6HR MAX TEMP: 86; BEAUFORT ARPT NOT AVBL HILTON HEAD IS CLEAR 77 66 69 E6 30.13S WALTERBORO NOT AVBL ALLENDALE NOT AVBL ...SOUTHERN MIDLANDS AND PEE DEE... CITY SKY/WX TMP DP RH WIND PRES REMARKS GEORGETOWN NOT AVBL KINGSTREE NOT AVBL ORANGEBURG PTCLDY 81 64 56 S8 30.09R 6HR MIN TEMP: 81; 6HR MAX TEMP: 88; BARNWELL NOT AVBL AIKEN NOT AVBL MANNING NOT AVBL COLUMBIA PTCLDY 85 61 44 S8 30.06S 6HR MIN TEMP: 85; 6HR MAX TEMP: 90; SUMTER PTCLDY 82 64 55 S8 30.06S 6HR MIN TEMP: 82; 6HR MAX TEMP: 89; FLORENCE CLEAR 82 64 54 S13 30.08S 6HR MIN TEMP: 82; 6HR MAX TEMP: 89; MYRTLE BEACH CLEAR 77 63 61 S12 30.13F N MYRTLE BEACH CLEAR 76 66 71 S9 30.12S 6HR MIN TEMP: 76; 6HR MAX TEMP: 81; $$ GAZ063-065-086>088-099>101-113>116-118-119-134>141-150-270100- ...SOUTHEAST GEORGIA... CITY SKY/WX TMP DP RH WIND PRES REMARKS SAVANNAH ARPT CLEAR 78 58 49 SE12 30.11R 6HR MIN TEMP: 78; 6HR MAX TEMP: 87; HUNTER AAF CLEAR 77 64 65 SE7 30.09R 6HR MIN TEMP: 77; 6HR MAX TEMP: 85; 6HR PCP: TRACE; FORT STEWART CLEAR 78 57 48 SE6 30.09R 6HR MIN TEMP: 78; 6HR MAX TEMP: 86; STATESBORO CLEAR 80 61 51 SE5 30.10R SYLVANIA CLEAR 81 61 50 S3 30.11R CLAXTON FAIR 79 59 49 E3 30.10R ...CSRA...CENTRAL AND FAR SOUTHEAST GEORGIA... CITY SKY/WX TMP DP RH WIND PRES REMARKS THOMSON PTCLDY 78 69 73 CALM 30.13R AUGUSTA-BUSH PTCLDY 79 65 62 SE7 30.06R 6HR MIN TEMP: 79; 6HR MAX TEMP: 90; AUGUSTA-DANIEL MOCLDY 85 62 46 SE6 30.08R SWAINSBORO FAIR 81 63 54 SE6 30.09S VIDALIA CLEAR 81 61 50 SE5 30.09S EASTMAN CLOUDY 83 62 50 SE3 30.10R HAZLEHURST FAIR 82 60 47 CALM 30.08R ALMA CLEAR 80 58 46 SE5 30.09R 6HR MIN TEMP: 80; 6HR MAX TEMP: 88; WAYCROSS CLEAR 78 56 46 SE6 30.10R JESUP FAIR 72 54 53 SE7 30.11R BAXLEY FAIR 81 55 41 SE7 30.09R BRUNSWICK CLEAR 81 64 57 E5 30.12R SAINT SIMONS CLEAR 76 63 64 E8 30.10F 6HR MIN TEMP: 76; 6HR MAX TEMP: 83; $$ SCZ027-028-034-036>038-045-046-048>050-GAZ119-141-270100- ...LAKE AND SUPPLEMENTAL COASTAL OBSERVATIONS... STATION/POSITION TIME TEMP WIND PRES WAVE SWELL AIR SEA DIR/SP/G HT/PER HT/PER/DIR (UTC) (F) (DEG/KT/KT) (MB) (FT/S) (FT/S/D) WINYAH BAY 2345 76 170/ 8 1019.0F LAKE MURRAY 2300 85 160/ 8/ 9 1017.3F ACE BASIN NERRS 2300 79 140/ 2 1020.0S FORT PULASKI 0000 1020.1R SAPELO ISLAND 0000 77 110/ 4 1019.0F $$ ANZ835-935-AMZ111-154-330-350-352-354-370-450-454-472-270100- ...C-MAN AND BUOY OBSERVATIONS... STATION/POSITION TIME TEMP WIND PRES WAVE SWELL AIR SEA DIR/SP/G HT/PER HT/PER/DIR (UTC) (F) (DEG/KT/KT) (MB) (FT/S) (FT/S/D) BUOY 41004 2350 78 78 130/ 8/ 12 1019.5F 2/ 8 2/ 8 BUOY 41008 2250 77 79 100/ 12/ 12 1019.6 2/ 8 2/100/ 8 FOLLY BEACH CMAN 0000 76 140/ 7/ 9 1020.1S CAPERS NEARSHORE 2308 77 78 150/ 10/ 12 1019.7F FRIPP NEARSHORE 0008 77 79 150/ 10/ 14 1019.3R STATION/POSITION TIME TEMP WIND PRES WAVE SWELL AIR SEA DIR/SP/G HT/PER HT/PER/DIR (UTC) (F) (DEG/KT/KT) (MB) (FT/S) (FT/S/D) 5E ST. MARYS GA 0001 78 N/A 2/ 8 FRYING PAN BUOY 0000 77 78 130/ 10/ 12 1020.0F BUOY 41025 2250 76 73 210/ 6/ 8 1021.2 2/ 8 2/140/ 8 CAPE LOOKOUT NC 0000 74 160/ 10/ 11 1020.3F BUOY 41002 2250 76 78 70/ 16/ 17 1020.6 3/ 4 2/110/ 8 BUOY 41010 2320 76 79 70/ 16/ 17 1018.3F ST AUGUSTINE FL 0000 77 81 80/ 11/ 13 1019.6F $$

USA.gov is the U.S. government's official web portal to all federal, state and local government web resources and services.